Flag for Germany Weather past 2 weeks in Rastatt, Baden-Württemberg, Germany

Now
82 °F

Sunny.


Feels Like: 81 °F
Forecast: 59 / 89 °F
Wind: 9 mph from North

Location: Karlsruhe - Baden Wurttemberg

Current Time: Aug 2, 2015 at 8:31:06 PM

Latest Report: Aug 2, 2015 at 7:50 PM


Visibility: 10 mi

Pressure: 30.01 "Hg

Humidity: 28%

Dew point: 46 °F

Location of RastattLocation

Historic Weather in Rastatt — Graph

°F

Rastatt temperature yesterday

Maximum temperature yesterday: 75 °F (at 1:50 PM)
Minimum temperature yesterday: 59 °F (at 4:50 AM)
Average temperature yesterday: 68 °F

Past Weeks' High & Low Weather Summary

 TemperatureHumidityPressure
High91 °F (Jul 21, 5:50 PM)94% (Aug 2, 6:20 AM)30.12 "Hg (Aug 2, 6:20 AM)
Low46 °F (Jul 26, 6:50 AM)27% (Aug 2, 4:50 PM)29.65 "Hg (Jul 24, 8:20 PM)
Average71 °F54%29.92 "Hg
* Reported Jul 18 7:20 PM — Aug 2 7:20 PM, Rastatt, Weather by CustomWeather, © 2015

Note: Actual official high and low records may vary slightly from our data, if they occured in-between our weather recording intervals... More about our weather records

Advertising

Rastatt weather history for previous 24 hours

 ConditionsComfort  
Time TempWeatherWind HumidityBarometerVisibility
7:20 PM
Sun, Aug 2
82 °FSunny.9 mph28%30.01 "Hg10 mi
6:50 PM84 °FSunny.9 mph27%30.01 "Hg10 mi
6:20 PM84 °FPassing clouds.8 mph27%30.01 "HgN/A
5:50 PM84 °FPassing clouds.8 mph29%30.01 "HgN/A
5:20 PM84 °FPassing clouds.8 mph27%30.04 "HgN/A
4:50 PM84 °FPassing clouds.8 mph27%30.04 "HgN/A
4:20 PM84 °FSunny.8 mph29%30.04 "Hg10 mi
3:50 PM84 °FSunny.9 mph29%30.04 "Hg10 mi
3:20 PM82 °FSunny.8 mph30%30.07 "Hg10 mi
2:50 PM81 °FSunny.8 mph34%30.07 "Hg10 mi
2:20 PM81 °FPassing clouds.8 mph37%30.07 "HgN/A
1:50 PM79 °FPassing clouds.8 mph42%30.07 "HgN/A
1:20 PM79 °FSunny.6 mph42%30.09 "Hg10 mi
12:50 PM77 °FSunny.5 mph44%30.09 "Hg10 mi
12:20 PM75 °FSunny.5 mph44%30.09 "Hg10 mi
11:50 AM75 °FSunny.3 mph44%30.09 "Hg10 mi
11:20 AM73 °FSunny.3 mph50%30.09 "Hg10 mi
10:50 AM72 °FSunny.3 mph57%30.12 "Hg10 mi
10:20 AM70 °FSunny.3 mph64%30.12 "Hg10 mi
9:50 AM68 °FSunny.5 mph69%30.12 "Hg10 mi
9:20 AM66 °FSunny.5 mph73%30.09 "Hg10 mi
8:50 AM64 °FSunny.3 mph78%30.09 "Hg10 mi
8:20 AM63 °FSunny.6 mph83%30.09 "Hg10 mi
7:50 AM61 °FSunny.6 mph88%30.09 "Hg10 mi
7:20 AM57 °FSunny.3 mph88%30.09 "Hg10 mi
6:50 AM55 °FClear.3 mph94%30.09 "Hg10 mi
6:20 AM54 °FClear.6 mph94%30.07 "Hg10 mi
5:50 AM55 °FClear.5 mph88%30.07 "Hg10 mi
5:20 AM55 °FClear.6 mph88%30.07 "Hg10 mi
4:50 AM57 °FClear.2 mph88%30.07 "Hg10 mi
11:50 PM
Sat, Aug 1
64 °FClear.7 mph73%30.04 "Hg10 mi
11:20 PM64 °FClear.6 mph73%30.04 "Hg10 mi
10:50 PM66 °FClear.6 mph68%30.01 "Hg10 mi
10:20 PM68 °FClear.7 mph64%30.01 "Hg10 mi
9:50 PM70 °FSunny.7 mph57%30.01 "Hg10 mi
9:20 PM70 °FSunny.8 mph57%29.98 "Hg10 mi
8:50 PM72 °FSunny.9 mph53%29.98 "Hg10 mi
8:20 PM72 °FSunny.8 mph53%29.98 "Hg10 mi
Weather by CustomWeather, © 2015

See weather overviewHow to use our weather pages